Zurück zum Katalog

STARLINK-33812

AktivKommunikationVLEO
NORAD 63879·PAYLOAD·🇺🇸 United States

Gestartet May 10, 2025 von Vandenberg Space Force Base

Loading…

Nächste Überflüge (nächste 24 Stunden)

TLE

AktuellSource: CelesTrak SupGP

Epoche: Sep 15, 2026, 02:35 UTC

1 63879C 25094R   26258.10812500  .00006536  00000+0  22737-3 0  2584
2 63879  69.9986 115.4218 0003240 273.3529  40.1688 15.29576511    14

Verfolge STARLINK-33812 in Echtzeit mit AllMySat

Download on the App Store